www.pogodaiklimat.ru

Погода и климат >> Архив погоды >> Россия >> Татарстан >> Камское Устье


ПОГОДА в Камском Устье

  • Прогноз погоды в Камском Устье
  • Монитор погоды в Камском Устье

АРХИВ ПОГОДЫ в Камском Устье

Время (UTC), дата Ветер
(напр.,м/с)
 
Видим.   Явления Облачность Т
(С)
Тd
(С)
f
(%)
Тe
(С)
Тes
(С)
Комфортность P
(гПа)
Po
(гПа)
Тmin
(С)
Tmax
(С)
R
(мм)
R24
(мм)
S
(см)
03 13.08 СЗ 5
{10}
н/о н/о +8.4 +3.2 70 +5 +5 1010.1 994.8 +6.7
06 13.08 СЗ 9-13
{16}
н/о н/о +12.4 +3.3 54 +9 +9 1009.5 994.5
12 14.08 СВ 2 н/о н/о +19.1 +8.9 52 +20 +20 1010.7 996.0
15 14.08 ЮВ 1 н/о н/о +18.0 +7.4 50 +19 +19 1011.4 996.6
18 14.08 Ю 1 н/о н/о +16.8 +6.2 50 +18 +18 1012.1 997.2
21 14.08 ЮЗ 2 н/о н/о +16.4 +8.8 61 +17 +17 1012.3 997.4
00 15.08 Ю 2 н/о н/о +15.4 +10.6 73 +15 +15 1012.7 997.7
03 15.08 Ю 4 н/о н/о +15.4 +12.1 81 +14 +14 1013.3 998.3 +15.0
06 15.08 Ю 4 н/о н/о +19.2 +12.0 63 +20 +20 1013.7 998.9
09 15.08 Ю 3 н/о н/о +23.0 +9.7 43 +25 +25 комфорт 1013.2 998.7
12 15.08 Ю 3 н/о н/о +24.7 +10.3 40 +26 +26 жарко 1012.5 998.0
15 15.08 Ю 2 н/о н/о +24.1 +12.8 49 +26 +26 жарко 1011.7 997.2 +25.3
18 15.08 Ю 3 н/о н/о +19.9 +13.0 64 +22 +22 комфорт 1012.2 997.5
21 15.08 Ю 4 н/о н/о +18.3 +12.4 68 +18 +18 1012.4 997.6
00 16.08 Ю 6 н/о н/о +18.4 +11.9 66 +18 +18 1011.9 997.1
03 16.08 Ю 4 н/о н/о +18.4 +12.5 68 +19 +19 1011.9 997.2 +17.8
06 16.08 Ю 5 н/о н/о +21.9 +13.2 58 +25 +25 комфорт 1011.4 996.8
09 16.08 Ю 6 н/о н/о +27.1 +12.5 40 +29 +29 жарко 1010.2 995.9
12 16.08 СЗ 5
{12}
н/о н/о +21.5 +15.2 67 +25 +25 комфорт 1012.4 997.8
15 16.08 С 3 н/о н/о +20.4 +15.4 73 +23 +23 комфорт 1011.5 996.9 +27.5
18 16.08 С 3 н/о н/о +19.4 +14.8 75 +21 +21 комфорт 1011.8 997.1
21 16.08 С 3 н/о н/о +18.4 +15.6 84 +19 +19 1011.7 997.0
00 17.08 С 2 н/о н/о +17.7 +17.7 100 +18 +18 1011.4 996.7
03 17.08 штиль 0 н/о н/о +17.9 +17.9 100 +18 +18 1011.6 996.9 +17.2
06 17.08 штиль 0 н/о н/о +18.6 +16.4 87 +19 +19 1012.1 997.4
09 17.08 Ю 2 н/о н/о +20.3 +15.7 75 +24 +24 комфорт 1013.1 998.4
12 17.08 ЮВ 2 н/о н/о +22.2 +15.3 65 +26 +26 душно 1012.6 998.0
15 17.08 СЗ 4 н/о н/о +20.5 +15.6 73 +23 +23 комфорт 1013.0 998.4 +22.6
18 17.08 С 2 н/о н/о +19.1 +15.9 82 +21 +21 комфорт 1013.0 998.3
21 17.08 С 3 н/о н/о +18.7 +16.6 88 +20 +20 1012.6 997.9
00 18.08 С 3 н/о н/о +18.9 +16.1 84 +20 +20 1012.4 997.7
03 18.08 СВ 1 н/о н/о +19.1 +16.5 85 +22 +22 комфорт 1012.1 997.4 +18.0
06 18.08 Ю 2 н/о н/о +23.7 +11.7 47 +25 +25 комфорт 1012.5 998.0
09 18.08 В 1 н/о н/о +21.8 +14.3 62 +25 +25 комфорт 1012.7 998.2
12 18.08 В 3 н/о н/о +26.8 +13.8 45 +29 +29 жарко 1013.2 998.9
15 18.08 Ю 3 н/о н/о +24.3 +9.1 38 +25 +25 комфорт 1013.5 999.0 +27.5
18 18.08 Ю 3 н/о н/о +19.2 +14.9 76 +21 +21 комфорт 1014.9 1000.2
21 18.08 Ю 3 н/о н/о +19.2 +11.2 60 +20 +20 1015.0 1000.2
00 19.08 ЮВ 1 н/о н/о +18.7 +10.6 59 +20 +20 1015.6 1000.8

 

Местоположение метеостанции Камское Устье (Татарстан, Россия): широта 55.21 долгота 49.25 высота над уровнем моря 148 м.

В архиве по умолчанию представлена погода в Камском Устье за последнюю неделю. Архивные данные за месяц целиком и за предыдущие месяцы, начиная с января 2011 года, Вы можете получить, выбрав интересующий диапазон дат из раскрывающегося списка и нажав кнопку "Ввод!".


*Определитесь, кто Вы:
робот инопланетянин человек

Внимание! Время в таблицах - всемирное. Для получения местного времени необходимо прибавить поправку, которая равна 3 ч.

Смотрите также архив погоды в соседних городах и на ближайших метеорологических станциях:

Погода в Лаишево (Татарстан, Россия) (29 км)
Погода в Тетюшах (Татарстан, Россия) (42 км)
Погода в Алексеевском (Татарстан, Россия) (53 км)
Погода в Казани (Татарстан, Россия) (58 км)
Погода в Больших Кайбицах (Татарстан, Россия) (71 км)
Погода в Вязовых (Татарстан, Россия) (82 км)
Погода в Чистополе (Татарстан, Россия) (90 км)
Погода в Арске (Татарстан, Россия) (104 км)
Погода в Батырево (Чувашия, Россия) (106 км)
Погода в Аксубаево (Татарстан, Россия) (106 км)

Пояснения к столбцам:

Ветер - указаны скорость ветра в м/с - средняя за 10 мин, порывы в срок и между сроками (в фигурных скобках) и направление, откуда дует ветер: С - северный, СВ - северо-восточный, В - восточный, ЮВ - юго-восточный, Ю - южный, ЮЗ - юго-западный, З - западный, СЗ - северо-западный.
Видимость - горизонтальная дальность видимости в метрах или километрах. При видимости от 1 до 10 км при отсутствии осадков обычно наблюдается дымка, при ухудшении видимости до 1 км и менее - туман. В сухую погоду видимость может ухудшаться дымом, пылью или мглою.
Явления - указаны атмосферные явления, наблюдавшиеся в срок или в последний час перед сроком; фигурными скобками обозначены явления, наблюдавшиеся между сроками (за 1-3 часа до срока); квадратными скобками обозначены град или гололедные отложения с указанием их диаметра в мм.
Облачность - указаны через наклонную черту общая и нижняя облачность в баллах и высота нижней границы облаков в метрах; квадратными скобками обозначены формы облаков: Ci - перистые, Cs - перисто-слоистые, Cc - перисто-кучевые, Ac - высококучевые, As - высокослоистые, Sc - слоисто-кучевые, Ns - слоисто-дождевые, Cu - кучевые, Cb - кучево-дождевые. Подробнее классификацию облаков см. в Атласе облаков (PDF).
T - Температура воздуха - температура, измеренная на высоте 2 м над землей.
Td - Температура точки росы - температура, при понижении до которой содержащийся в воздухе водяной пар достигнет насыщения.
f - Относительная влажность воздуха - влажноcть воздуха, измеренная на высоте 2 м над землей.
Te - Эффективная температура - температура, которую ощущает одетый по сезону человек в тени. Характеристика душности погоды. При расчете учитывается влияние влажности воздуха и скорости ветра на теплоощущения человека.
Tes - Эффективная температура на солнце - температура, которую ощущает человек, с поправкой на солнечный нагрев. Характеристика знойности погоды. Зависит от высоты солнца над горизонтом, облачности и скорости ветра. Ночью, в пасмурную погоду, а также при ветре 12 м/с и более поправка равна нулю.
P - Атмосферное давление - приведенное к уровню моря атмосферное давление.
Po - Атмосферное давление - измеренное на уровне метеостанции атмосферное давление.
Tmin - Минимальная температура - минимум температуры воздуха на высоте 2 м над землей.
Tmax - Максимальная температура - максимум температуры воздуха на высоте 2 м над землей.
R - Количество осадков - Количество выпавших осадков за период времени, мм. При наведении курсора мыши на число - период времени, за который выпало указанное количество осадков.
R24 - Количество осадков - Количество выпавших осадков за 24 часа, мм.
S - Снежный покров - Высота снежного покрова, см. При наведении курсора мыши на число - состояние снежного покрова и степень покрытия местности в баллах.